Location: *
(40.7873°S, 98.7174°E)
Time: 09:43:08
(UTC+00:00)

Cosmos 1153 Rocket - Pass Details

Date: 24 May 2022
Orbit: 954 x 1005 km, 82.9° (Epoch: 04 July)

Event Time Altitude Azimuth Distance (km) Brightness Sun altitude
Rises 10:57:04 0° 186° (S) 3,702 7.4 -8.9°
Reaches altitude 10° 10:59:37 10° 184° (S) 2,742 6.7 -9.4°
Maximum altitude 11:05:54 74° 98° (E) 1,008 4.4 -10.5°
Drops below altitude 10° 11:12:03 10° 13° (NNE) 2,686 6.9 -11.6°
Sets 11:14:31 0° 11° (N) 3,622 7.6 -12.1°
